sat.trackr.live / text

‹ back to catalog

STARLINK-36183

NORAD 67173 · 2025-303L

PAYLOAD ACTIVE UNKNOWN

§ Identity

Operator
Country
US
Launch date
2025-12-17
Launch site
AFETR
Launch vehicle
Mass (kg)
RCS (m²)

Purposes: comms

External: N2YO · Heavens-Above · Gunter

§ Orbital elements

Epoch: 2026-09-19T02:36:00.759168Z

Period
94.26 min
Inclination
43.0020°
Eccentricity
0.0001099
Mean motion
15.27613018 rev/d
Perigee alt
482.2 km
Apogee alt
483.7 km
Semi-major
6,861.1 km
B*
3.3531e-4
RAAN
298.5992°
Arg perigee
276.3091°
Mean anomaly
83.7635°
Rev number
4,231

§ Raw data

STARLINK-361831 67173U 25303L   26262.10834212  .00008985  00000+0  33531-3 0  99932 67173  43.0020 298.5992 0001099 276.3091  83.7635 15.27613018 42312

JSON: /api/v1/satellites/67173 · /tle

For live sub-satellite position, see the globe view (requires WebGL).

§ Visibility from observer

Set your observer location to see the next 7 days of passes ≥ 10°. The values pass through the URL so the page stays shareable.

No JS? Fill the form by hand. The geolocation button needs JavaScript.